Estación municipal de St. Hilari Sacalm (La Selva, Guilleries)

Consulta los datos en tiempo real de la estación municipal de St. Hilari Sacalm





Hora UTC 04:20
Temperatura 10.3 ºC
Humedad 88.9 %
Presión 1016.9 hPa
Pluja 0.0 mm
Velocidad viento 0.2 km/h
Dirección viento W
Radiación solar 0.1 W/m²

Webcam

Datos diarios 2026-05-03



Hora UTC (invierno +1h; verano +2h)
Temperatura (ºC) Humedad (%) Presión (hPa) Velocidad viento (km/h) Precipitación (mm) Radiación solar (W/m²)
Hora UTC Aire Humedad Presión Vel. Dir. Vel. Max Dir. Intent. máx 5 min. Rad. Sol.
00:05 9.8 91.8 1018.8 0.0 NNE 0.0 SW 0.0 0.1
00:10 9.8 91.6 1018.7 0.0 NNE 0.0 SSW 0.0 0.1
00:15 9.9 91.5 1018.7 0.0 NNE 0.0 SW 0.0 0.1
00:20 10.0 91.3 1018.6 0.0 NNE 0.0 WSW 0.0 0.1
00:25 10.1 91.1 1018.6 0.0 NNE 0.0 SW 0.0 0.1
00:30 10.2 91.0 1018.6 0.0 NNE 0.0 SW 0.0 0.1
00:35 10.4 90.7 1018.6 0.0 NNE 0.0 SSE 0.0 0.1
00:40 10.5 90.4 1018.5 0.0 NNE 0.0 SSE 0.0 0.1
00:45 10.8 90.0 1018.4 0.0 NNE 0.0 SSE 0.0 0.1
00:50 11.0 89.3 1018.3 0.0 NNE 0.0 SSE 0.0 0.1
00:55 11.1 88.7 1018.2 0.0 NNE 0.0 ESE 0.0 0.1
01:00 11.2 88.4 1018.1 0.0 NNE 0.0 SSE 0.0 0.1
01:05 11.0 88.2 1018.1 0.0 NNE 0.0 SSE 0.0 0.1
01:10 10.9 88.4 1018.0 0.0 NNE 0.0 SE 0.0 0.1
01:15 10.9 88.4 1017.9 0.0 NNE 0.0 SSE 0.0 0.1
01:20 10.9 88.3 1017.9 0.0 NNE 0.0 NE 0.0 0.1
01:25 10.9 88.3 1018.0 0.0 NNE 0.0 NE 0.0 0.1
01:30 11.0 88.3 1017.9 0.0 NNE 0.0 E 0.0 0.1
01:35 11.0 88.0 1017.9 0.0 NNE 0.0 ENE 0.0 0.1
01:40 11.0 88.0 1018.0 0.0 NNE 0.0 ENE 0.0 0.1
01:45 11.0 88.1 1017.9 0.0 NNE 0.0 NE 0.0 0.1
01:50 10.9 88.4 1017.9 0.0 NNE 0.0 NE 0.0 0.1
01:55 10.9 88.8 1017.8 0.0 NNE 0.0 NE 0.0 0.1
02:00 10.9 89.3 1017.7 0.0 NNE 0.0 NE 0.0 0.1
02:05 10.8 89.6 1017.6 0.0 NNE 0.0 NE 0.0 0.1
02:10 10.8 89.9 1017.6 0.0 NNE 0.0 NNE 0.0 0.1
02:15 10.7 90.0 1017.6 0.0 NNE 0.0 NNE 0.0 0.1
02:20 10.6 90.3 1017.5 0.0 NNE 0.0 NNE 0.0 0.1
02:25 10.5 90.4 1017.5 0.0 NNE 0.0 NNE 0.0 0.1
02:30 10.4 90.8 1017.4 0.0 NNE 0.0 NNE 0.0 0.1
02:35 10.5 91.1 1017.4 0.0 NNE 0.0 ESE 0.0 0.1
02:40 10.5 90.5 1017.3 0.0 NNE 0.0 SE 0.0 0.1
02:45 10.6 89.4 1017.3 0.0 NNE 0.0 ESE 0.0 0.1
02:50 10.6 88.6 1017.3 0.0 NNE 0.0 SE 0.0 0.1
02:55 10.7 87.4 1017.3 0.0 NNE 0.0 SSE 0.0 0.1
03:00 10.7 86.0 1017.3 0.2 S 6.1 S 0.0 0.1
03:05 10.8 84.1 1017.3 0.0 NNE 0.0 S 0.0 0.1
03:10 10.8 82.4 1017.2 0.2 SSE 6.1 SSE 0.0 0.1
03:15 10.8 80.1 1017.1 1.6 SSE 11.5 SSE 0.0 0.1
03:20 10.9 78.9 1017.2 0.8 S 6.1 S 0.0 0.1
03:25 10.9 78.6 1017.2 0.3 SSW 11.5 SSW 0.0 0.1
03:30 11.1 81.7 1017.2 0.0 NNE 0.0 S 0.0 0.1
03:35 11.0 83.0 1017.0 0.0 NNE 0.0 SSW 0.0 0.1
03:40 10.7 81.5 1017.0 0.0 NNE 0.0 SSW 0.0 0.1
03:45 10.6 77.4 1017.0 0.0 NNE 0.0 S 0.0 0.1
03:50 10.6 75.8 1017.0 0.0 NNE 0.0 S 0.0 0.1
03:55 10.7 80.5 1017.0 0.0 NNE 0.0 NW 0.0 0.1
04:00 10.7 83.1 1016.9 0.0 NNE 0.0 WNW 0.0 0.1
04:05 10.5 85.3 1016.9 0.0 NNE 0.0 W 0.0 0.1
04:10 10.5 86.8 1017.0 0.0 NNE 0.0 W 0.0 0.1
04:15 10.4 87.9 1016.9 0.0 NNE 0.0 W 0.0 0.1
04:20 10.3 88.9 1016.9 0.2 W 8.8 W 0.0 0.1
Máxima 11.2 91.8 1018.8 1.6 SSE 11.5 SSW 0.0 0.1
Mínima 9.8 75.8 1016.9
Total 0.0